STARLINK-32561, 62026

Orbit data source: Space-Track

STARLINK-32561, 62026 is a payload satellite owned by SpaceX/Seattle (US) in LEO that was launched on Mon, 18 Nov 2024 UTC via an FALCON 9 launch vehicle from the Air Force Western Test Range (AFWTR). Payload-class satellites include a variety of spacecraft equipped with specific instruments for various scientific and technological missions. These include communications satellites like Starlink; space stations such as the ISS; scientific satellites like the Hubble; Earth observation satellites from companies like Planet Labs, Umbra, and HawkEye 360; GPS; miniature CubeSats for education and research; and military/defense satellites.

Loading next visibility...
Identifier
62026, 2024-213U
Orbit
LEO
Country
Flag of USUS
Related business
Manufacturer
SpaceX/Seattle
Mission
Operational Commercial Communications
Bus & Motor
STARLINK V2M, Unknown motor
Mass
730 kg wet, ~700 kg dry
Launch date (UTC)
2024-11-18 (1 year ago)
Launch vehicle
FALCON 9
Launch site
Air Force Western Test Range (AFWTR)
Object type
Payload
Rocket body
Debris
Shape & HBR
Box + 2 Pan, 17.7 m
Radar Cross Section
33.884 m², Large (>1 m²)

Expand to show TLE details & history
Last TLE update: 4 hours ago

TLE from 4 hours ago
0 STARLINK-32561
1 62026U 24213U   26123.60811473  .00018051  00000-0  61998-3 0  9993
2 62026  53.1623 272.9884 0000648 134.0435 226.0619 15.30206385 81565
Epoch: 2026-05-03T14:35Z
TLE epoch observation values (Epoch: 2026-05-03T14:35:41.112Z)
Latitude
-0.00005°
Longitude
-167.44216°
Altitude
476.404 km
Speed
7.629 km/s
True Right ascension
18h 11m 57s
True Declination
0° 00' 00"
Sunlit
Object was in full shadow at epoch
Visualization orbit readout
Latitude
Unknown
Longitude
Unknown
Altitude
Unknown
Speed
Unknown
Apparent Right ascension
Unknown
Apparent Declination
Unknown
Sunlit
N/A
Visualization observer readout
Local Sidereal Time
02:34:03
Azimuth
Unknown
Elevation
Unknown
Doppler factor
Unknown
Orbital elements
Apogee altitude
475.896 km
Perigee altitude
475.008 km
Semi-major axis
6,853.589 km
Eccentricity
0.00006
Inclination
53.1623°
RAAN
272.9884°
Arg. of periapsis
134.0435°
True anomaly
226.05655°
Mean anomaly
226.0619°
Eccentric anomaly
226.05923°
Mean motion
3.82531 °/min
Orbital period
94.11 mins
BSTAR
0.00061998
Loading maneuver chart data...
Computing Atmospheric mass density...
Loading historical data...
Loading historical data...
Loading historical data...
Loading historical data...
Loading historical data...
Loading historical data...
Loading historical data...

Documentation

Showing up to 5 results
|